Location: St. Louis
(38.6270°N, 90.1994°W)
Time: 13:04:30
(UTC-06:00)

Transit 2A - All Passes

Search period start: 30 November 2021 00:00
Search period end: 10 December 2021 00:00
Orbit: 591 x 967 km, 66.7° (Epoch: 30 November)

Date Brightness Start Highest point End Pass type
(mag) Time Alt. Az. Time Alt. Az. Time Alt. Az.
30 Nov - 01:36:11 10° WSW 01:41:20 38° NW 01:46:59 10° NNE night (unlit)
30 Nov - 08:41:12 10° N 08:46:30 27° NE 08:51:38 10° ESE daylight
30 Nov - 10:23:57 10° NW 10:30:13 59° WSW 10:36:06 10° S daylight
30 Nov - 23:20:10 10° SSE 23:24:15 22° ESE 23:28:38 10° NE night (unlit)
01 Dec - 01:01:34 10° SW 01:06:57 53° WNW 01:12:55 10° NNE night (unlit)
01 Dec - 02:49:56 10° NW 02:51:45 11° NW 02:53:37 10° NNW visible
01 Dec - 08:07:22 10° N 08:11:58 20° NE 08:16:27 10° E daylight
01 Dec - 09:49:37 10° NNW 09:56:03 84° WSW 10:02:05 10° SSE daylight
01 Dec - 11:36:08 10° W 11:38:14 12° W 11:40:18 10° WSW daylight
01 Dec - 22:47:28 10° SE 22:50:20 14° E 22:53:20 10° ENE night (unlit)
02 Dec - 00:27:10 10° SSW 00:32:39 76° WNW 00:38:46 10° NNE night (unlit)
02 Dec - 02:13:47 10° WNW 02:17:04 15° NW 02:20:29 10° N night (unlit)
02 Dec - 07:33:44 10° N 07:37:21 15° NE 07:40:54 10° ENE daylight
02 Dec - 09:15:24 10° NNW 09:21:48 71° ENE 09:27:50 10° SE daylight
02 Dec - 11:00:16 10° WNW 11:04:19 18° WSW 11:08:16 10° SW daylight
02 Dec - 23:52:59 10° SSW 23:58:26 76° ESE 00:04:30 10° NNE night (unlit)
03 Dec - 01:38:17 10° W 01:42:27 20° NW 01:46:51 10° N night (unlit)
03 Dec - 07:00:32 10° NNE 07:02:39 12° NE 07:04:44 10° NE daylight
03 Dec - 08:41:16 10° NNW 08:47:30 51° ENE 08:53:23 10° SE daylight
03 Dec - 10:25:15 10° NW 10:30:23 27° WSW 10:35:16 10° SSW daylight
03 Dec - 23:19:02 10° S 23:24:19 52° ESE 23:30:09 10° NE night (unlit)
04 Dec - 01:03:08 10° WSW 01:07:54 27° NW 01:13:01 10° N night (unlit)
04 Dec - 08:07:13 10° NNW 08:13:06 37° NE 08:18:44 10° ESE daylight
04 Dec - 09:50:34 10° NW 09:56:21 38° WSW 10:01:49 10° S daylight
04 Dec - 22:45:19 10° S 22:50:14 35° ESE 22:55:38 10° NE night (unlit)
05 Dec - 00:28:16 10° WSW 00:33:26 36° NW 00:39:04 10° NNE night (unlit)
05 Dec - 07:33:14 10° N 07:38:38 28° NE 07:43:49 10° ESE daylight
05 Dec - 09:16:06 10° NW 09:22:16 55° WSW 09:28:04 10° S daylight
05 Dec - 22:11:56 10° SSE 22:16:15 24° ESE 22:20:54 10° NE night (unlit)
05 Dec - 23:53:37 10° SW 23:59:02 50° NW 00:05:01 10° NNE night (unlit)
06 Dec - 01:42:24 10° NW 01:43:55 11° NW 01:45:27 10° NNW night (unlit)
06 Dec - 06:59:23 10° N 07:04:06 21° NE 07:08:41 10° E daylight
06 Dec - 08:41:44 10° NNW 08:48:07 79° WSW 08:54:05 10° SSE daylight
06 Dec - 10:29:02 10° W 10:30:14 11° W 10:31:25 10° WSW daylight
06 Dec - 21:39:04 10° SE 21:42:20 16° ESE 21:45:44 10° ENE night (unlit)
06 Dec - 23:19:11 10° SW 23:24:44 71° WNW 23:30:52 10° NNE night (unlit)
07 Dec - 01:06:03 10° WNW 01:09:12 14° NW 01:12:29 10° N night (unlit)
07 Dec - 06:25:42 10° N 06:29:30 16° NE 06:33:13 10° ENE visible
07 Dec - 08:07:29 10° NNW 08:13:53 75° ENE 08:19:53 10° SSE daylight
07 Dec - 09:52:36 10° WNW 09:56:21 17° WSW 09:59:58 10° SW daylight
07 Dec - 22:44:57 10° SSW 22:50:30 81° ESE 22:56:38 10° NNE night (unlit)
08 Dec - 00:30:29 10° W 00:34:34 19° NW 00:38:52 10° N night (unlit)
08 Dec - 05:52:23 10° NNE 05:54:49 12° NE 05:57:14 10° ENE visible
08 Dec - 07:33:20 10° NNW 07:39:36 54° ENE 07:45:28 10° SE daylight
08 Dec - 09:17:29 10° NW 09:22:24 25° WSW 09:27:05 10° SSW daylight
08 Dec - 22:10:57 10° S 22:16:20 56° ESE 22:22:17 10° NE night (unlit)
08 Dec - 23:55:17 10° WSW 00:00:01 25° NW 00:05:05 10° N night (unlit)
09 Dec - 06:59:16 10° NNW 07:05:13 39° NE 07:10:51 10° ESE daylight
09 Dec - 08:42:45 10° NW 08:48:24 35° WSW 08:53:43 10° S daylight
09 Dec - 21:37:11 10° S 21:42:15 38° ESE 21:47:49 10° NE night (unlit)
09 Dec - 23:20:22 10° WSW 23:25:32 34° NW 23:31:08 10° NNE night (unlit)
